Погода в Балхаше

Погода в Балхаше : погода сейчас, прогноз погоды и архив. Всё, что Вы хотите узнать о погоде в Балхаше!

Хотите узнать прогноз погоды в Балхаше? Тогда Вам сюда: Погода в Балхаше

Поиск расширенной информации на нашем сайте:

Другие новости

Новости СМИ2

Главная страница сайта

Новости сайта

02.10.2013

Напоминаем, что на нашем новом сайте вы можете получить высокодетализированные прогнозы погоды по пунктам России, СНГ и мира (включающие важные для авиации метеовеличины, такие как направление и скорость ветра, видимость, явления погоды, количество и форма облачности, нижняя и верхняя граница облачности), а также ознакомиться с разнообразными материалами по авиационной метеорологии и подборкой полезных ссылок на эту тему.

Сайт Метеоцентр.Азия посвящён разработке технологий оптимизации авиаметеорологического обслуживания, включая проектирование и перспективное создание нескольких автоматизированных авиаметеорологических систем:
- система выпуска высокодетальных прогностических карт явлений погоды для нижнего воздушного пространства по России и ближнему зарубежью;
- система верификации прогнозов TAF (выпускаемых синоптиками официальных АМСГ РФ и ближнего зарубежья) и AUTOTAF (выпускаемых сайтом Метеоцентр.Азия) - выявление ошибок, онлайн-сопоставление с фактической погодой METAR, автоматическое внесение коррективов в прогнозы при резком отклонении фактической погоды от прогноза, подсчёт оправдываемости прогнозов по элементам и в целом;
- система обработки, анализа и отображения авиаметеорологической информации для применения провайдерами метеорологической информации.


Погода в Балхаше - сегодня

Время (UTC), дата Ветер
(°,м/с) 
Видим.   Явления Облачность Т
(°С)
Тd
(°С)
f(%) Тe
(°С)
Pmin
(гПа)
dP
(гПа)
Po
(мм)
O2
(г/м3)
Тmin Tmax R s Состояние
почвы
12 25.02.17 тихо ()   4000 м  слаб. крупа{ливн. осадки}  10/10 600 м кучево-дожд. 
[Cb cap]
-3.4 -4.5 92 -3  1025.9  736  301           
15 25.02.17 230 (ЮЗ) 10 км  {ливн. осадки}  10/10 1000 м 
[Sc]
-3.4 -4.2 94 -3  1027.2  1.3  737  301    -2.5  0.5     
18 25.02.17 тихо ()   0200 м  слаб. ливневой снег{туман}  ?/?  
-4 -4.8 94 -4  1028.7  1.3  738  302    -2.5  0.5     
21 25.02.17 тихо ()   4000 м  в посл. час ливневой снег{туман}  10/10 1000 м 
[Sc]
-3.2 -3.9 95 -3  1029.1  0.5  739  302           
00 26.02.17 270 (З) 10 км  слаб. ливневой снег{туман}  10/10 600 м кучево-дожд. 
[Cb cap]
-3 -4 93 -3  1030.9  1.8  740  302           
03 26.02.17 тихо ()   4000 м  дымка{ливн. осадки}  9/0 средняя 
[Ac trans]
-4.9 -6.2 91 -5  1032.8  1.5  741  305      0.6  20  равномерный
сухой снег
100% 
06 26.02.17 тихо ()   10 км  {ливн. осадки}  10/0 средняя 
[Ac und]
-0.8 -3.6 81 -1  1033.2  742  300  -5.1    0.6     
09 26.02.17 320 (СЗ) 20000 м    3/0 средняя, верхняя 
[Ac trans|Ci sp]
+0.9 -2.3 79 1031.9  -0.9  741  298           
12 26.02.17 090 (В) 20000 м    1/0 верхняя 
[Ci fib]
-1.5 -4.7 79 -1  1033.2  0.8  742  301           
15 26.02.17 070 (В) 10 км    9/0 средняя 
[As trans]
-2.8 -3.4 96 -4  1033.2  -0.2  742  302    +1.5       
18 26.02.17 070 (В) 0200 м  переохл. туман  ?/?  
-3.4 -3.8 97 -6  1032.9  -0.4  741  303    +1.5       
21 26.02.17 140 (ЮВ) 10 км  {туман}  10/10 600 м 
[St]
-2.3 -2.6 98 -2  1031.3  -1.3  740  301           
00 27.02.17 140 (ЮВ) 20000 м  дымка{туман}  10/10 600 м 
[St]
-2 -2.3 98 -1  1030.9  -0.4  740  301           
03 27.02.17 090 (В) 10 км    10/10 600 м 
[St]
-1.2 -2.2 93 -2  1030.8  0.1  740  300        18  равномерный
сухой снег
100% 
06 27.02.17 090 (В) 20000 м    3/0 верхняя 
[Ci sp]
-0.2 -2.5 84 -4  1030.5  -0.2  740  299  -3.5         
09 27.02.17 090 (В) 20000 м  позёмок  6/3 600 м верхняя 
[St|Ci sp]
-0.2 -2.3 86 -4  1029.7  -0.7  739  298           
12 27.02.17 090 (В) 20000 м    9/0 средняя, верхняя 
[Ac trans|Ci sp]
-0.5 -2 90 -4  1029.6  -0.2  739  299           
15 27.02.17 070 (В) 10 км    9/9 1000 м 
[Sc]
-2.7 -3.4 95 -6  1030.9  0.9  740  301    +0.5       
18 27.02.17 090 (В) 10 км    10/10 1000 м 
[Sc]
-2.8 -3.2 97 -6  1031  0.1  740  302    +0.5       
21 27.02.17 070 (В) 10 км  снежные зёрна  10/10 600 м 
[St]
-2.6 -3.6 93 -7  1030.2  -0.7  740  301           
00 28.02.17 070 (В) 10 км  снежные зёрна  10/10 600 м 
[St]
-4.1 -5.6 89 -8  1030.2  -0.3  739  303           
03 28.02.17 070 (В) 20000 м  дымка{снег}  10/10 600 м 
[St]
-8.1 -8.7 95 -12  1031.3  0.4  740  308      0.0  17  равномерный
сухой снег
100% 
06 28.02.17 070 (В) 2000 м  дымка{снег, туман}  10/0 средняя 
[As trans]
-5.7 -6.4 95 -10  1029.8  -1  739  305  -8.3    0.0     
09 28.02.17 090 (В) 4000 м  дымка{туман}  ясно 
-2.9 -6.4 77 -6  1028  -1.3  738  301           
12 28.02.17 070 (В) 4000 м  дымка  ясно 
-2.2 -5.5 78 -5  1027.1  -0.7  737  300           
Время (UTC), дата Ветер
(°,м/с) 
Видим.   Явления Облачность Т
(°С)
Тd
(°С)
f(%) Тe
(°С)
Pmin
(гПа)
dP
(гПа)
Po
(мм)
O2
(г/м3)
Тmin Tmax R s Состояние
почвы

Для получения пояснительной информации подведите курсор к названию столбца.

ПОГОДА в Балхаше - архив

Всё, что Вы хотите узнать о погоде в Балхаше - удобно и подробно!

Выберите нужную дату (начиная с 1 января 2015* года) и нажмите кнопку "Найти".
Будут отображены архивные сводки погоды по пункту Балхаш, начиная с указанной даты.


Отображать данные в формате CSV (для использования в таблицах Excel)


Внимание! Наш архив погоды предназначен исключительно для личного некоммерческого использования в познавательных целях. Если Вам необходимы официальные справки о состоянии погоды (для производственных, юридических, коммерческих и т.п. целей), обращайтесь в органы Росгидромета.

*Примечание: данная дата относится к архиву по метеостанциям СССР (Россия, СНГ, Балтия).
Архив по метеостанциям Зарубежной Европы и Азии (кроме Китая) хранится 10 дней, по другим регионам земного шара (Китай, Африка, Америка, Австралия, Океания) - 1 день.

Балхаш - район местоположения метеостанции


Название, широта, долгота, высота метеостанции:
Балхаш 46.8°ш. 75.1°д. 350 м над ур. моря [Казахстан]

Дополнительная информация

В oтличие oт бoльшинства пoгoдных сайтoв мы публикуем пoдрoбную метеoинфoрмацию в детальнoм прoфессиoнальнoм фoрмате.

Характеристики температуры и влажнoсти вoздуха измеряются на высoте 2 м в тени вдали oт зданий и деревьев.
Скoрoсть ветра измеряется на высoте 10 м (на урoвне рoста челoвека скoрoсть ветра ниже в 1.5-2 раза). Если метеoстанция нахoдится в гoрoде или в лесу, тo скoрoсть ветра занижена на 2-4 м/с пo сравнению с oткрытым местoм. Скoрoсть ветра над акватoриями крупных рек и oзёр, а также на вершинах хoлмoв на 2-5 м/с выше, чем в oбычных услoвиях.
Атмoсфернoе давление в разных тoчках местнoсти мoжет значительнo oтличаться oт давления на метеoстанции, в зависимoсти oт услoвий рельефа (при пoдъёме на 10 м давление пoнижается примернo на 1 мм рт.ст.).